IW1PUR Weather Reports


time (UTC)temp
F
wind
direction
speed
knots
gust
knots
rain 1hr
in
rain 24hr
in
rain mn
in
humidity
%
barometer
mb
20260506150414 64 135 0.0 0.0 0.00 0.67 0.67 31 1008.0
20260506150013 64 135 0.0 0.0 0.00 0.67 0.67 31 1007.9
20260506145612 64 270 0.0 0.0 0.00 0.67 0.67 32 1007.8
20260506145211 64 180 0.0 0.9 0.00 0.67 0.67 32 1007.8
20260506144809 65 315 0.0 0.0 0.00 0.67 0.67 31 1008.0
20260506144408 65 135 0.0 0.9 0.00 0.67 0.67 33 1007.9
20260506144008 65 315 0.9 2.6 0.00 0.67 0.67 30 1007.9
20260506143406 65 180 0.0 0.0 0.00 0.67 0.67 34 1007.8
20260506143005 66 158 0.0 0.9 0.00 0.67 0.67 30 1007.9
20260506142603 67 0 0.0 0.9 0.00 0.67 0.67 29 1007.9
20260506141801 68 135 0.0 0.9 0.00 0.67 0.67 30 1008.1
20260506141359 69 90 0.0 0.0 0.00 0.67 0.67 29 1007.9
20260506140958 69 135 0.0 0.0 0.00 0.67 0.67 28 1008.1
20260506140757 68 90 0.0 2.6 0.00 0.67 0.67 31 1007.9
20260506140356 68 225 0.0 0.9 0.00 0.67 0.67 34 1007.9
20260506135955 68 180 0.0 0.9 0.00 0.67 0.67 34 1007.9
20260506135553 67 315 0.0 0.9 0.00 0.67 0.67 35 1007.9
20260506135153 67 180 0.0 0.0 0.00 0.67 0.67 34 1008.1
20260506134751 67 270 0.0 0.0 0.00 0.67 0.67 32 1008.0
20260506134350 67 180 0.0 0.0 0.00 0.67 0.67 34 1008.1
20260506133347 64 0 0.0 0.9 0.00 0.67 0.67 36 1008.1
20260506132946 63 158 0.0 0.0 0.00 0.67 0.67 34 1008.1
20260506132545 64 293 0.0 0.9 0.00 0.67 0.67 33 1008.0
20260506132144 65 90 0.0 3.5 0.00 0.67 0.67 35 1008.1
20260506131743 65 90 0.9 3.5 0.00 0.67 0.67 35 1008.1
20260506131141 67 135 1.7 4.3 0.00 0.67 0.67 34 1008.0
20260506130741 66 135 0.0 1.7 0.00 0.67 0.67 34 1008.1
20260506130340 67 90 0.0 0.0 0.00 0.67 0.67 34 1008.0
20260506125938 67 158 1.7 6.1 0.00 0.67 0.67 34 1008.1
20260506125537 67 135 0.0 0.0 0.00 0.67 0.67 35 1008.1
20260506125136 68 135 0.0 0.9 0.00 0.67 0.67 34 1008.1
20260506124535 67 135 0.0 0.0 0.00 0.67 0.67 34 1008.2
20260506124134 66 315 0.0 0.0 0.00 0.67 0.67 39 1008.1
20260506123732 65 135 0.0 0.0 0.00 0.67 0.67 39 1008.1
20260506123332 65 90 0.0 0.0 0.00 0.67 0.67 38 1008.0
20260506122930 64 225 0.0 0.9 0.00 0.67 0.67 41 1008.2
20260506122528 64 90 0.0 0.9 0.00 0.67 0.67 41 1008.0
20260506122127 64 135 0.0 0.0 0.00 0.67 0.67 40 1008.0
20260506121128 62 135 0.0 0.0 0.00 0.67 0.67 42 1007.9
20260506120725 62 90 0.0 0.9 0.00 0.67 0.67 42 1008.0
20260506120323 63 90 0.0 0.9 0.00 0.67 0.67 41 1007.9
20260506115922 63 135 0.0 1.7 0.00 0.67 0.67 39 1007.8
20260506115520 64 90 0.0 0.9 0.00 0.67 0.67 37 1007.9
20260506115119 65 158 0.0 0.0 0.00 0.67 0.67 38 1008.0
20260506114517 65 135 0.0 0.9 0.00 0.67 0.67 42 1007.9
20260506114116 63 135 0.0 1.7 0.00 0.67 0.67 41 1008.0
20260506113714 64 90 0.0 0.0 0.00 0.67 0.67 38 1008.0
20260506113313 65 180 0.9 3.5 0.00 0.67 0.67 36 1008.1
20260506112912 66 135 0.9 2.6 0.00 0.67 0.67 38 1007.9
20260506112510 65 135 0.0 0.9 0.00 0.67 0.67 42 1008.0
20260506112309 64 180 0.0 0.9 0.00 0.67 0.67 40 1008.0
20260506111908 64 180 0.0 0.9 0.00 0.67 0.67 36 1007.9
20260506111106 65 135 1.7 4.3 0.00 0.67 0.67 39 1007.9
20260506110704 64 135 0.0 0.0 0.00 0.67 0.67 39 1008.0
20260506110304 64 135 1.7 3.5 0.00 0.67 0.67 41 1008.0
20260506105903 64 180 0.0 0.9 0.00 0.67 0.67 40 1007.9
20260506105501 64 180 0.0 0.9 0.00 0.67 0.67 41 1008.1
20260506105101 63 135 0.0 0.9 0.00 0.67 0.67 41 1008.1
20260506103657 62 135 0.0 0.9 0.00 0.67 0.67 42 1008.1
20260506103256 62 135 0.0 0.9 0.00 0.67 0.67 43 1008.0
20260506102854 62 135 0.0 2.6 0.00 0.67 0.67 43 1008.0
20260506102453 63 135 0.0 0.9 0.00 0.67 0.67 44 1008.0
20260506102052 61 90 0.0 0.9 0.00 0.67 0.67 43 1007.8
20260506101450 62 135 0.0 0.9 0.00 0.67 0.67 43 1007.9
20260506101048 62 293 1.7 4.3 0.00 0.67 0.67 43 1007.8
20260506100647 63 90 1.7 6.1 0.00 0.67 0.67 42 1007.8
20260506100246 63 45 0.9 1.7 0.00 0.67 0.67 44 1007.9
20260506095845 63 45 0.0 0.9 0.00 0.67 0.67 44 1007.9
20260506095444 63 0 0.0 0.0 0.00 0.67 0.67 45 1007.9
20260506095042 62 158 0.0 0.0 0.00 0.67 0.67 51 1007.9
20260506094440 60 135 0.0 0.0 0.00 0.67 0.67 54 1007.8
20260506094039 58 315 0.0 0.9 0.00 0.67 0.67 58 1008.0
20260506093637 58 135 0.0 0.0 0.00 0.67 0.67 58 1008.0
20260506093236 58 135 0.0 0.9 0.00 0.67 0.67 57 1007.8
20260506092834 58 315 0.0 0.9 0.00 0.67 0.67 58 1007.9
20260506092433 58 135 0.0 0.9 0.00 0.67 0.67 60 1007.7
20260506092033 58 270 0.0 0.0 0.00 0.67 0.67 61 1008.0
20260506091631 58 90 0.0 0.9 0.00 0.67 0.67 61 1007.7
20260506090630 58 135 0.0 0.9 0.00 0.67 0.67 60 1007.8
20260506090228 58 180 0.0 1.7 0.00 0.67 0.67 60 1007.3
20260506085828 58 90 0.0 0.0 0.00 0.67 0.67 61 1007.3
20260506085426 58 90 0.0 0.0 0.00 0.67 0.67 61 1007.5
20260506084824 58 315 0.0 0.9 0.00 0.67 0.67 61 1007.3
20260506084422 58 225 1.7 7.0 0.00 0.67 0.67 61 1007.2
20260506084021 58 315 0.0 1.7 0.00 0.67 0.67 62 1007.2
20260506083620 58 45 0.9 4.3 0.00 0.67 0.67 62 1007.1
20260506083218 58 90 0.0 1.7 0.00 0.67 0.67 64 1007.1
20260506082817 58 270 0.9 4.3 0.00 0.67 0.67 64 1007.3
20260506082215 58 0 0.0 0.9 0.00 0.67 0.67 65 1006.7
20260506081813 58 180 1.7 9.6 0.00 0.67 0.67 68 1007.0
20260506081412 58 270 0.0 1.7 0.00 0.67 0.67 69 1006.8
20260506081011 58 225 0.0 0.9 0.00 0.67 0.67 69 1006.8
20260506080609 58 270 0.0 1.7 0.00 0.67 0.67 73 1006.8
20260506080208 57 0 1.7 10.4 0.00 0.67 0.67 74 1007.1
20260506072958 56 113 3.5 7.8 0.11 0.67 0.67 87 1006.5
20260506072558 56 180 0.0 0.9 0.11 0.67 0.67 87 1006.6
20260506072156 56 180 0.0 1.7 0.11 0.67 0.67 87 1006.5
20260506071755 56 135 0.0 0.0 0.11 0.67 0.67 87 1006.5
20260506071354 56 180 0.0 1.7 0.11 0.67 0.67 86 1006.5
20260506070953 57 90 1.7 11.3 0.11 0.67 0.67 86 1006.4
20260506070552 56 293 4.3 8.7 0.11 0.67 0.67 86 1006.5
20260506070351 56 45 0.0 0.9 0.11 0.67 0.67 85 1006.3
20260506062138 56 225 0.0 0.0 0.00 0.61 0.55 82 1006.1
20260506061736 56 135 0.0 0.0 0.00 0.62 0.55 82 1006.4
20260506061335 56 90 0.0 0.0 0.00 0.64 0.55 83 1006.4
20260506060733 55 135 0.0 0.9 0.00 0.67 0.55 84 1006.6
20260506060332 55 270 0.0 0.0 0.00 0.72 0.55 84 1006.6
20260506051117 53 270 0.0 0.0 0.01 1.18 0.55 86 1006.8
20260506050715 52 113 0.0 0.0 0.01 1.21 0.55 85 1006.8
20260506050314 52 113 0.0 0.0 0.02 1.24 0.55 85 1006.7
20260506044909 52 90 0.0 0.0 0.03 1.34 0.55 85 1006.7
20260506044508 52 135 0.0 0.0 0.04 1.37 0.55 85 1006.9
20260506044108 52 225 0.0 0.0 0.04 1.39 0.55 85 1006.9
20260506043706 52 270 0.0 0.0 0.04 1.40 0.55 85 1006.8
20260506043505 52 45 0.0 0.0 0.04 1.40 0.55 85 1006.9
20260506043104 52 45 0.0 0.0 0.04 1.42 0.55 85 1007.0
20260506042702 52 45 0.0 0.0 0.03 1.42 0.55 85 1007.1
20260506042301 52 180 0.0 0.0 0.03 1.44 0.54 85 1007.2
20260506041859 52 45 0.0 0.0 0.03 1.45 0.54 85 1007.2
20260506041458 52 0 0.0 0.0 0.03 1.46 0.54 85 1007.2
20260506040456 52 68 0.0 1.7 0.02 1.57 0.53 84 1007.4
20260506040054 52 270 0.0 0.0 0.01 1.55 0.53 84 1007.5
20260506035653 52 90 0.0 0.0 0.01 1.57 0.51 84 1007.7
20260506035251 52 270 0.0 0.0 0.00 1.55 0.51 84 1007.6
20260506034850 52 270 0.0 0.0 0.01 1.55 0.50 85 1007.5
20260506034449 52 270 0.0 0.0 0.04 1.57 0.50 85 1007.3
20260506033847 52 270 0.0 0.0 0.05 1.57 0.50 84 1007.4
20260506033446 52 45 0.0 0.0 0.08 1.59 0.50 84 1007.3
20260506033044 52 135 0.0 0.0 0.09 1.60 0.50 83 1007.3
20260506032643 52 270 0.0 0.0 0.10 1.61 0.50 83 1007.2
20260506032242 52 225 0.0 0.0 0.12 1.62 0.50 84 1007.3
20260506031840 52 225 0.0 0.0 0.17 1.62 0.50 82 1007.4
20260506031439 52 225 0.0 0.0 0.22 1.62 0.50 82 1007.4
20260506031238 52 225 0.0 0.0 0.23 1.62 0.50 82 1007.3
20260506030836 52 225 0.0 0.0 0.24 1.62 0.50 82 1007.3
20260506030435 52 225 0.0 0.0 0.25 1.64 0.50 82 1007.5
20260506030033 52 225 0.0 0.0 0.27 1.64 0.50 82 1007.7
20260506025632 52 225 0.0 0.0 0.25 1.62 0.50 82 1007.7
20260506025231 53 270 0.0 0.0 0.25 1.60 0.49 82 1007.5
20260506024830 53 90 0.0 0.0 0.25 1.59 0.47 82 1007.8
20260506024429 53 90 0.0 0.0 0.25 1.59 0.46 82 1008.2
20260506023426 53 225 0.0 0.0 0.28 1.57 0.42 81 1008.1
20260506023025 53 225 0.0 0.0 0.29 1.57 0.41 81 1008.0
20260506022623 53 0 0.0 0.0 0.27 1.54 0.40 80 1008.2
20260506022222 53 0 0.0 0.0 0.23 1.51 0.37 80 1008.2
20260506021620 54 90 0.0 0.0 0.20 1.46 0.28 78 1008.3
20260506021219 54 135 0.0 0.0 0.21 1.46 0.27 77 1008.3
20260506020817 55 180 0.0 0.0 0.21 1.45 0.25 77 1008.0
20260506020416 55 180 0.0 0.0 0.21 1.45 0.24 76 1007.7
20260506020014 55 180 0.0 0.0 0.21 1.45 0.23 76 1007.8
20260506015814 55 180 0.0 0.0 0.20 1.45 0.23 76 1008.0
20260506015412 55 135 0.0 0.0 0.18 1.42 0.21 75 1008.0
20260506015012 55 225 0.0 0.0 0.17 1.41 0.20 75 1008.1
20260506014610 55 225 0.0 0.0 0.17 1.40 0.18 75 1008.3
20260506014209 55 45 0.0 0.0 0.15 1.38 0.17 75 1008.6
20260506013808 55 45 0.0 0.0 0.12 1.35 0.15 74 1008.7
20260506013406 55 45 0.0 0.0 0.10 1.33 0.12 75 1008.7
20260506012404 55 315 0.0 0.0 0.08 1.33 0.09 73 1008.6
20260506012003 56 45 0.0 0.0 0.07 1.32 0.08 72 1008.5
20260506011602 56 180 0.0 0.0 0.04 1.31 0.07 72 1008.4
20260506011200 56 90 0.0 0.0 0.03 1.29 0.04 72 1008.5
20260506010759 56 0 0.0 0.0 0.02 1.29 0.03 72 1008.4
20260506010157 56 90 0.0 0.0 0.01 1.29 0.02 71 1008.3
20260506005756 56 45 0.0 0.0 0.01 1.28 0.01 69 1008.3
20260506005354 56 45 0.0 0.0 0.01 1.28 0.01 69 1008.4
20260506004953 56 45 0.0 0.0 0.00 1.27 0.01 68 1008.6
20260506004551 56 270 0.0 0.0 0.00 1.27 0.00 68 1008.6
20260506004151 56 135 0.0 0.0 0.00 1.27 0.00 67 1008.6
20260506003950 56 135 0.0 0.0 0.00 1.27 0.00 67 1008.6
20260506003549 56 90 0.0 0.0 0.00 1.27 0.00 67 1008.5
20260506003147 56 90 0.0 0.0 0.00 1.27 0.00 67 1008.6
20260506002746 56 90 0.0 0.0 0.00 1.27 0.00 67 1008.6
20260506002345 56 270 0.0 0.0 0.00 1.27 0.00 67 1008.6
20260506001943 56 270 0.0 0.0 0.00 1.27 0.00 66 1008.7
20260506001542 56 45 0.0 0.0 0.00 1.27 0.00 66 1008.8
20260506000541 56 225 0.0 0.0 0.00 1.27 0.00 66 1009.0
20260506000139 56 225 0.0 0.0 0.00 1.27 0.00 66 1008.9
20260505235738 56 135 0.0 0.0 0.00 1.27 0.00 66 1009.0
20260505235336 56 135 0.0 0.0 0.00 1.27 0.00 66 1009.1
20260505234334 57 180 0.0 0.0 0.00 1.27 0.00 66 1009.4
20260505233933 57 270 0.0 0.0 0.00 1.27 0.00 65 1009.5
20260505233531 57 45 0.0 0.0 0.00 1.27 0.00 65 1009.6
20260505233130 57 270 0.0 0.0 0.00 1.27 0.00 65 1009.7
20260505232729 57 270 0.0 0.0 0.00 1.27 0.00 65 1009.8
20260505232327 57 0 0.0 0.0 0.00 1.27 0.00 65 1009.9
20260505231926 57 45 0.0 0.0 0.00 1.27 0.00 65 1009.8
20260505231324 57 45 0.0 0.9 0.00 1.27 0.00 65 1009.8
20260505230923 57 0 0.0 0.0 0.00 1.27 0.00 66 1010.1
20260505230522 57 315 0.0 0.0 0.00 1.27 0.00 66 1010.2
20260505230122 57 68 0.0 0.0 0.00 1.27 0.00 66 1009.9
20260505225720 57 90 0.0 0.9 0.00 1.27 0.00 66 1010.0
20260505224316 57 293 0.0 0.9 0.00 1.27 0.00 67 1010.1
20260505223915 57 135 0.0 0.0 0.00 1.27 0.00 66 1010.1
20260505223514 57 135 0.0 0.0 0.00 1.27 0.00 67 1010.2
20260505223113 57 270 0.0 0.0 0.00 1.27 0.00 67 1010.2
20260505222512 57 0 0.0 0.0 0.00 1.27 0.00 67 1010.2
20260505222110 57 225 0.0 0.0 0.00 1.27 0.00 67 1010.3
20260505221709 56 158 0.0 0.9 0.00 1.27 0.00 67 1010.4
20260505221307 56 270 0.0 0.0 0.00 1.27 0.00 67 1010.2
20260505220906 56 315 0.0 0.0 0.00 1.27 0.00 67 1010.3
20260505220505 56 45 0.0 0.0 0.00 0.00 0.00 67 1010.5
20260505215750 56 315 0.0 0.0 0.00 1.27 1.27 67 1010.6
20260505215348 56 90 0.0 0.0 0.00 1.27 1.27 67 1010.7
20260505214947 56 270 0.0 0.0 0.00 1.27 1.27 67 1010.6
20260505214546 57 45 0.0 0.0 0.00 1.27 1.27 67 1010.5
20260505214345 56 270 0.0 0.0 0.00 1.27 1.27 67 1010.6
20260505213944 56 90 0.0 0.0 0.00 1.27 1.27 68 1010.6
20260505213543 56 270 0.0 0.0 0.00 1.27 1.27 68 1010.7
20260505213142 56 180 0.0 0.0 0.00 1.27 1.27 68 1010.8
20260505212740 56 0 0.0 0.0 0.00 1.27 1.27 68 1010.9
20260505212340 56 45 0.0 0.0 0.00 1.27 1.27 68 1010.8
20260505211938 57 45 0.0 0.0 0.00 1.27 1.27 68 1010.7
20260505210936 56 45 0.0 0.9 0.00 1.27 1.27 67 1010.9
20260505210535 56 315 0.0 0.0 0.00 1.27 1.27 67 1010.8
20260505210134 56 270 0.0 0.0 0.00 1.27 1.27 66 1010.9
20260505205732 56 270 0.0 0.0 0.00 1.27 1.27 66 1011.1
20260505205331 56 45 0.0 0.0 0.00 1.27 1.27 66 1010.9
20260505204730 57 270 0.0 0.0 0.00 1.27 1.27 65 1011.0
20260505204327 57 90 0.0 0.9 0.00 1.27 1.27 65 1011.0
20260505203926 57 45 0.0 0.0 0.00 1.27 1.27 64 1011.1
20260505203525 57 0 0.0 0.0 0.00 1.27 1.27 64 1011.1
20260505203124 57 180 0.0 0.0 0.00 1.27 1.27 63 1011.2
20260505202723 57 90 0.0 0.0 0.00 1.27 1.27 63 1011.2
20260505202322 57 45 0.0 0.0 0.00 1.27 1.27 63 1011.1
20260505201921 57 315 0.0 0.0 0.00 1.27 1.27 63 1011.0
20260505201720 57 315 0.0 0.0 0.00 1.27 1.27 63 1011.0
20260505201320 57 135 0.0 0.0 0.00 1.27 1.27 61 1011.1
20260505200918 57 0 0.0 0.0 0.00 1.27 1.27 61 1011.1
20260505200517 57 135 0.0 0.0 0.00 1.27 1.27 61 1011.1
20260505200115 57 90 0.0 0.9 0.00 1.27 1.27 61 1011.1
20260505195714 57 225 0.0 0.0 0.00 1.27 1.27 61 1011.2
20260505194711 57 293 0.0 0.0 0.00 1.27 1.27 61 1011.1
20260505194310 57 45 0.0 0.0 0.00 1.27 1.27 60 1011.0
20260505193909 57 135 0.0 0.0 0.00 1.27 1.27 59 1011.1
20260505193508 57 135 0.0 0.0 0.00 1.27 1.27 59 1011.0
20260505193106 57 315 0.0 0.0 0.00 1.27 1.27 59 1010.9
20260505192705 57 225 0.0 0.0 0.00 1.27 1.27 58 1010.8
20260505192103 57 180 0.0 0.0 0.00 1.27 1.27 57 1010.9
20260505191702 58 45 0.0 0.0 0.00 1.27 1.27 57 1010.8
20260505191300 58 45 0.0 0.0 0.00 1.27 1.27 57 1010.9
20260505190859 58 90 0.0 0.0 0.00 1.27 1.27 56 1010.8
20260505190458 58 135 0.0 0.0 0.00 1.27 1.27 55 1010.9
20260505190257 58 135 0.0 0.0 0.00 1.27 1.27 55 1010.8
20260505185855 58 270 0.0 0.0 0.00 1.27 1.27 55 1010.6
20260505185454 58 135 0.0 0.0 0.00 1.27 1.27 54 1010.7
20260505185053 58 0 0.0 0.0 0.00 1.27 1.27 54 1010.7
20260505184652 58 293 0.0 0.0 0.00 1.27 1.27 54 1010.7
20260505184250 58 270 0.0 0.0 0.00 1.27 1.27 54 1010.7
20260505183248 58 135 0.0 0.0 0.00 1.27 1.27 53 1010.8
20260505182847 58 180 0.0 0.0 0.00 1.27 1.27 53 1010.8
20260505182445 58 180 0.0 0.0 0.00 1.27 1.27 53 1010.8
20260505182044 59 225 0.0 0.0 0.00 1.27 1.27 52 1010.8
20260505181643 59 45 0.0 0.0 0.00 1.27 1.27 52 1010.8
20260505181040 59 225 0.0 0.0 0.00 1.27 1.27 50 1010.7
20260505180639 59 45 0.0 0.0 0.00 1.27 1.27 50 1010.7
20260505180238 60 45 0.0 0.0 0.00 1.27 1.27 49 1010.7
20260505175836 60 45 0.0 0.9 0.00 1.27 1.27 49 1010.6
20260505175436 60 135 0.0 0.0 0.00 1.27 1.27 48 1010.7
20260505175035 60 90 0.0 0.0 0.00 1.27 1.27 47 1010.6
20260505174032 61 180 0.0 0.0 0.00 1.27 1.27 44 1010.5
20260505173631 62 135 0.0 0.9 0.00 1.27 1.27 42 1010.6
20260505173229 62 135 0.0 0.0 0.00 1.27 1.27 42 1010.5
20260505172828 63 180 0.0 0.0 0.00 1.27 1.27 38 1010.5
20260505172426 64 180 0.0 0.0 0.00 1.27 1.27 36 1010.5
20260505171423 68 135 0.0 0.0 0.00 1.27 1.27 34 1010.5
20260505171025 68 135 0.0 0.0 0.00 1.27 1.27 35 1010.5
20260505170623 67 270 0.0 0.0 0.00 1.27 1.27 36 1010.5
20260505170220 66 270 0.0 0.0 0.00 1.27 1.27 39 1010.4
20260505165819 64 270 0.0 0.0 0.00 1.27 1.27 41 1010.5
20260505165419 63 180 0.0 0.0 0.00 1.27 1.27 42 1010.5
20260505164817 63 180 0.0 0.0 0.00 1.27 1.27 41 1010.6
20260505164415 64 180 0.0 0.0 0.00 1.27 1.27 41 1010.5
20260505164015 65 0 0.0 0.0 0.00 1.27 1.27 39 1010.5
20260505163613 66 90 0.0 0.0 0.00 1.27 1.27 37 1010.5
20260505163212 67 225 0.0 0.9 0.00 1.27 1.27 36 1010.5
20260505162810 68 23 0.0 0.0 0.00 1.27 1.27 37 1010.5
20260505162409 67 90 0.0 0.0 0.00 1.27 1.27 37 1010.5
20260505162208 67 135 0.0 0.0 0.00 1.27 1.27 36 1010.6
20260505161806 68 113 0.0 0.0 0.00 1.27 1.27 37 1010.5
20260505161406 68 90 0.0 0.0 0.00 1.27 1.27 35 1010.5
20260505161005 68 90 0.0 0.0 0.00 1.27 1.27 36 1010.5
20260505160603 67 270 0.0 0.0 0.00 1.27 1.27 37 1010.6
20260505160202 67 315 0.0 0.0 0.00 1.27 1.27 36 1010.5
20260505152952 64 135 0.0 0.0 0.00 1.27 1.27 42 1010.8
20260505152551 64 90 0.0 0.0 0.00 1.27 1.27 42 1010.9
20260505152150 65 180 0.0 0.0 0.00 1.27 1.27 42 1010.9
20260505151748 65 180 0.0 0.0 0.00 1.27 1.27 41 1010.9
20260505151347 65 315 0.0 0.0 0.00 1.27 1.27 42 1010.8